DateTimeUTC,F1_A11,F1_S11,BsB_S11,BsG_S11,BsR_S11,BbsB_S11,BbsG_S11,BbsR_S11,BaB_A11,BaG_A11,BaR_A11,Tu_S11,T_S11,Uu_S11,U_S11,P_S11,T1_A11
2021-03-01T12:00:00Z,00000200,21000000,,,,,,,0000.20,-000.39,0000.14,16.5,24.2,,00.0,0639.6,31.0
2021-03-01T12:01:00Z,00000200,21000000,,,,,,,-000.09,0000.53,0000.12,16.5,24.2,,00.0,0639.6,31.0
2021-03-01T12:02:00Z,00000200,21000000,,,,,,,-000.22,-000.18,-000.11,16.6,24.2,,00.0,0639.6,31.0
2021-03-01T12:03:00Z,00000200,61000000,,,,,,,0000.60,0000.53,0000.50,16.6,24.2,,00.0,0639.6,31.0
2021-03-01T12:04:00Z,00000200,41000000,0001.18,0000.99,0000.51,0001.10,0000.22,0000.25,0000.23,0000.31,-000.03,16.9,24.1,,00.0,0640.5,31.0
2021-03-01T12:05:00Z,00000200,01000000,0001.80,0001.13,0000.56,0000.47,0000.41,0000.10,0001.13,0000.61,0000.58,17.0,24.0,,00.0,0640.6,31.0
2021-03-01T12:06:00Z,00000200,01000000,0001.83,0000.97,0000.80,-000.19,0000.16,0000.38,0000.22,0000.29,0000.28,16.9,24.0,,00.0,0640.6,31.0
2021-03-01T12:07:00Z,00000200,01000000,0002.24,0001.28,0000.65,0000.41,0000.49,0000.15,0000.26,0000.49,0000.28,16.9,24.0,,00.0,0640.6,31.0
2021-03-01T12:08:00Z,00000200,01000000,0002.29,0000.96,0000.66,0000.14,0000.27,0000.25,0000.78,0000.22,0000.20,16.9,24.0,,00.0,0640.7,31.0
2021-03-01T12:09:00Z,00000200,01000000,0001.98,0000.98,0000.57,0000.48,0000.22,0000.09,0000.26,0000.43,0000.20,16.8,24.0,,00.0,0640.7,31.0
2021-03-01T12:10:00Z,00000200,01000000,0002.01,0000.94,0000.60,0000.15,0000.20,-000.00,0000.44,0000.46,0000.23,16.8,23.9,,00.0,0640.8,31.0
2021-03-01T12:11:00Z,00000200,01000000,0002.24,0001.24,0000.70,0000.61,0000.19,0000.50,0000.11,0000.01,0000.24,16.8,23.9,,00.0,0640.8,31.0
2021-03-01T12:12:00Z,00000200,01000000,0001.93,0001.12,0000.41,0000.45,0000.15,0000.16,0000.44,0000.75,0000.37,16.8,23.9,,00.0,0640.8,31.0
2021-03-01T12:13:00Z,00000200,01000000,0002.38,0001.02,0000.44,0000.66,0000.16,0000.11,0000.57,0000.15,0000.13,16.8,23.9,,00.0,0640.8,30.9
2021-03-01T12:14:00Z,00000200,01000000,0002.37,0000.98,0000.49,0000.20,0000.10,0000.35,0000.38,0000.05,0000.33,16.8,23.8,,00.0,0640.8,31.0
2021-03-01T12:15:00Z,00000200,01000000,0002.28,0000.92,0000.75,0000.43,0000.11,0000.24,0000.22,0000.39,0000.19,16.8,23.9,,00.0,0640.7,30.9
2021-03-01T12:16:00Z,00000200,01000000,0001.77,0001.09,0000.66,0000.51,0000.23,0000.35,0000.68,0000.44,0000.50,16.9,23.9,,00.0,0640.7,30.9
2021-03-01T12:17:00Z,00000200,01000000,0001.90,0001.14,0000.53,0000.08,0000.31,0000.37,0000.48,0000.42,0000.03,16.9,23.9,,00.0,0640.8,31.0
2021-03-01T12:18:00Z,00000200,01000000,0002.43,0001.08,0000.59,-000.07,-000.07,0000.35,0000.53,0000.77,0000.45,17.0,24.0,,00.0,0640.8,31.0
2021-03-01T12:19:00Z,00000200,01000000,0002.14,0001.04,0000.53,0000.20,0000.22,0000.30,0000.61,0000.29,0000.45,17.1,24.0,,00.0,0640.8,31.0
2021-03-01T12:20:00Z,00000200,01000000,0001.72,0001.15,0000.79,0000.70,0000.05,0000.13,0000.08,0000.71,0000.22,17.2,24.0,,00.0,0640.8,31.0
2021-03-01T12:21:00Z,00000200,01000000,0001.82,0001.30,0000.77,0000.47,0000.36,0000.30,0000.52,0000.22,0000.23,17.2,24.1,,00.0,0640.9,31.0
2021-03-01T12:22:00Z,00000200,01000000,0001.39,0001.29,0000.74,0000.62,0000.26,0000.30,0000.65,0000.68,0000.47,17.2,24.1,,00.0,0640.9,31.0
2021-03-01T12:23:00Z,00000200,01000000,0002.03,0001.01,0000.81,0000.87,0000.21,0000.43,0000.61,-000.03,0000.09,17.2,24.1,,00.0,0640.9,31.0
2021-03-01T12:24:00Z,00000200,01000000,0001.76,0000.97,0000.69,0000.08,0000.20,0000.14,0000.29,0000.87,0000.39,17.2,24.1,,00.0,0640.9,31.0
2021-03-01T12:25:00Z,00000200,01000000,0001.58,0001.26,0000.84,0000.58,0000.13,0000.03,0000.32,-000.31,0000.06,17.1,24.0,,00.0,0640.9,31.0
2021-03-01T12:26:00Z,00000200,01000000,0002.41,0001.01,0000.74,0000.53,0000.29,0000.25,0000.47,0000.85,0000.38,17.1,24.0,,00.0,0640.9,31.0
2021-03-01T12:27:00Z,00000200,01000000,0001.85,0001.03,0000.75,0000.50,0000.13,0000.22,0000.37,0000.09,0000.22,17.0,24.0,,00.0,0640.9,31.0
2021-03-01T12:28:00Z,00000200,01000000,0001.84,0001.18,0000.74,0000.22,0000.29,0000.09,0000.28,0000.31,0000.44,17.0,24.0,,00.0,0640.9,31.0
2021-03-01T12:29:00Z,00000200,01000000,0001.98,0001.24,0000.49,0000.31,0000.27,0000.18,0000.39,0000.15,-000.08,17.0,24.0,,00.0,0640.9,31.0
2021-03-01T12:30:00Z,00000200,01000000,0001.44,0001.46,0000.82,0000.27,0000.25,-000.03,0000.70,0000.45,0000.65,17.1,24.0,,00.0,0640.9,31.0
2021-03-01T12:31:00Z,00000200,01000000,0001.75,0000.89,0000.73,0000.31,-000.01,0000.23,0000.36,0000.61,-000.08,17.2,24.0,,00.0,0640.9,31.0
2021-03-01T12:32:00Z,00000200,01000000,0001.26,0001.05,0000.71,0000.20,0000.41,0000.05,0000.33,0000.64,0000.40,17.3,24.1,,00.0,0640.9,31.0
2021-03-01T12:33:00Z,00000200,01000000,0001.90,0001.30,0000.86,0000.22,0000.24,0000.17,0000.52,0000.64,0000.48,17.2,24.1,,00.0,0641.0,31.0
2021-03-01T12:34:00Z,00000200,01000000,0001.75,0001.13,0000.66,0000.53,0000.04,0000.41,0000.37,0000.13,0000.26,17.3,24.1,,00.0,0641.0,31.0
2021-03-01T12:35:00Z,00000200,01000000,0001.88,0001.16,0000.82,-000.03,0000.06,0000.11,0000.67,0000.44,0000.35,17.3,24.1,,00.0,0641.0,31.0
2021-03-01T12:36:00Z,00000200,01000000,0001.53,0001.43,0000.70,0000.40,0000.19,0000.14,0000.42,0000.61,0000.46,17.3,24.1,,00.0,0641.0,31.0
2021-03-01T12:37:00Z,00000200,01010000,0001.51,0000.97,0000.77,0000.30,-000.05,0000.09,0000.33,0000.28,0000.24,17.2,24.1,,00.0,0641.1,31.0
2021-03-01T12:38:00Z,00000200,01000000,0001.95,0000.90,0000.64,0000.09,0000.19,0000.23,0000.52,0000.67,0000.39,17.2,24.1,,00.0,0641.1,31.0
2021-03-01T12:39:00Z,00000200,01000000,0001.52,0001.30,0000.54,0000.52,0000.19,0000.15,0000.37,0000.04,0000.18,17.1,24.0,,00.0,0641.1,31.0
2021-03-01T12:40:00Z,00000200,01000000,0002.01,0001.25,0000.47,0000.02,0000.24,0000.27,0000.47,0000.24,0000.22,17.1,24.0,,00.0,0641.1,31.0
2021-03-01T12:41:00Z,00000200,01000000,0001.45,0001.03,0000.81,0000.20,0000.22,0000.21,0000.68,0000.31,-000.01,17.0,24.0,,00.0,0641.1,31.0
2021-03-01T12:42:00Z,00000200,01000000,0001.87,0001.14,0000.93,0000.67,0000.23,0000.43,0000.04,0000.18,0000.16,17.0,24.0,,00.0,0641.1,31.0
2021-03-01T12:43:00Z,00000200,01000000,0001.93,0000.91,0000.91,0000.11,0000.16,0000.06,0000.34,0000.38,0000.33,17.0,24.0,,00.0,0641.1,31.0
2021-03-01T12:44:00Z,00000200,01000000,0002.17,0000.96,0000.80,0000.17,0000.27,0000.43,0000.54,0000.36,0000.32,17.0,24.0,,00.0,0641.1,31.0
2021-03-01T12:45:00Z,00000200,01000000,0001.68,0001.05,0001.01,0000.02,0000.04,0000.29,0000.16,0000.30,0000.04,17.0,24.0,,00.0,0641.1,31.0
2021-03-01T12:46:00Z,00000200,01000000,0002.04,0000.77,0000.79,-000.07,0000.15,0000.28,0000.43,0000.37,0000.34,17.1,24.0,,00.0,0641.1,31.0
2021-03-01T12:47:00Z,00000200,01000000,0002.28,0001.12,0000.51,0000.53,0000.37,0000.44,0000.41,0000.31,0000.25,17.1,24.0,,00.0,0641.1,31.0
2021-03-01T12:48:00Z,00000200,01000000,0001.93,0001.03,0000.66,0000.48,0000.08,0000.29,0000.56,0000.48,0000.17,17.2,24.1,,00.0,0641.1,31.0
2021-03-01T12:49:00Z,00000200,01000000,0001.47,0001.23,0000.67,0000.27,0000.43,0000.55,0000.24,0000.14,0000.48,17.3,24.1,,00.0,0641.1,31.0
2021-03-01T12:50:00Z,00000200,01000000,0002.07,0001.15,0000.47,0000.59,0000.19,0000.23,0000.64,0000.54,0000.35,17.4,24.2,,00.0,0641.1,31.0
2021-03-01T12:51:00Z,00000200,01000000,0001.88,0001.23,0000.77,0000.25,-000.01,0000.17,0000.41,0000.88,0000.23,17.4,24.2,,00.0,0641.1,31.0
2021-03-01T12:52:00Z,00000200,01000000,0001.76,0001.10,0000.60,0000.32,0000.27,0000.01,0000.55,-000.02,0000.60,17.5,24.2,,00.0,0641.1,31.0
2021-03-01T12:53:00Z,00000200,01000000,0001.76,0001.23,0000.53,0000.43,0000.09,0000.15,0000.30,0000.50,0000.29,17.4,24.2,,00.0,0641.1,31.0
2021-03-01T12:54:00Z,00000200,01000000,0001.59,0001.11,0000.59,0000.93,0000.42,0000.14,0000.37,0000.42,0000.26,17.4,24.2,,00.0,0641.2,31.0
2021-03-01T12:55:00Z,00000200,01000000,0001.67,0000.96,0000.60,-000.06,0000.17,0000.38,0000.27,0000.29,0000.09,17.3,24.2,,00.0,0641.2,31.0
2021-03-01T12:56:00Z,00000200,01000000,0001.85,0000.83,0000.80,0000.19,0000.08,0000.01,0000.48,0000.43,0000.35,17.3,24.2,,00.0,0641.2,31.0
2021-03-01T12:57:00Z,00000200,41000000,,,,,,,0000.84,0000.53,0000.17,17.3,24.2,,00.0,0641.3,31.0
2021-03-01T12:58:00Z,00000200,61000000,,,,,,,-000.25,-000.53,-000.02,16.9,24.3,,00.0,0640.3,31.0
2021-03-01T12:59:00Z,00000200,21000000,,,,,,,-000.42,-000.00,-000.26,16.9,24.4,,00.0,0640.3,31.0
